QUETZSAT 1

Last updated on Sun Jun 21 2026 00:03:05 GMT+0000 (Coordinated Universal Time)

1 37826U 11054A 26171.37673041 -.00000246 00000+0 00000+0 0 9996 2 37826 0.0334 59.3393 0002657 30.4863 237.3860 1.00271979 49901
UTC large
Height (km)
Speed (km/s)
/
Latitude / Longitude
Inclination (degrees)
Orbital Period (minutes)
Azimuth
Elevation
Range (km)
Doppler Factor

Next 0 passes for location: London (51.5072 / 0.1276)

No passes found over London.
QUETZSAT 1